Theta_e
291 287 286 285 289 291 291 289 291 290 286 284 284 284 284 284 285 286 288 289 287 286 287 288 289 290 290 291 292 293 293 291 292 293 295 296 296 296 296 296 297 297 298 301 302 302 301 301 299 298 297 297 298 299 299 298 298 299 298 297 296 297 298 298 298 298 298 296 295 295 293 293 294 294 295 294 294 294 294 295 295 295 294 295 294 293
291 287 286 290 291 291 289 287 287 288 286 286 285 283 285 284 285 289 289 290 286 287 283 285 288 289 290 292 293 294 293 293 294 294 294 295 296 297 297 297 297 298 300 300 300 300 299 298 298 297 297 296 296 297 297 298 298 298 298 297 297 297 297 297 298 298 298 298 297 295 294 295 295 294 293 293 293 293 294 294 294 294 294 294 294 293
286 284 288 290 291 285 284 284 284 286 286 285 285 285 283 285 286 289 289 290 287 284 286 285 286 288 289 292 294 294 293 294 295 295 295 296 296 297 297 297 297 298 298 299 299 299 297 297 297 296 296 296 297 298 297 298 298 298 298 298 298 297 297 297 297 298 298 298 298 297 297 296 296 296 295 295 295 294 294 294 294 294 294 294 293 293
285 284 289 291 289 287 287 286 285 285 284 283 283 282 284 286 284 284 285 282 284 285 286 287 285 287 290 292 293 294 294 294 295 295 295 296 296 296 297 297 296 297 297 298 298 297 296 296 295 294 294 296 296 296 296 297 297 298 298 298 297 297 297 297 297 297 298 298 298 298 296 296 296 294 294 294 294 294 293 292 293 293 293 293 293 293
289 287 286 289 287 287 287 286 286 284 286 285 285 284 285 285 287 285 285 284 284 287 284 285 287 289 288 288 288 289 291 292 294 294 294 295 296 297 297 297 298 297 297 297 297 297 296 296 296 296 296 295 295 296 296 297 297 297 298 298 297 297 296 297 297 297 298 297 296 294 293 294 292 293 293 292 291 292 292 292 291 292 293 293 293 292
287 288 286 285 285 285 285 284 285 286 284 285 283 286 288 288 286 285 286 284 282 282 283 283 284 285 284 287 286 288 287 289 290 291 293 294 295 295 295 296 297 298 296 296 296 296 296 296 296 295 293 293 294 295 296 297 297 298 298 298 297 297 296 296 296 297 297 296 295 293 292 290 291 291 290 290 290 290 290 291 292 292 292 292 292 292
286 287 287 288 285 284 284 284 285 286 285 283 285 285 288 287 285 284 283 284 279 278 284 282 280 281 284 288 289 290 289 291 292 290 293 293 293 293 294 295 295 295 295 295 295 295 295 296 295 296 295 295 294 295 296 296 296 297 298 297 297 297 296 296 296 296 296 296 295 294 294 294 293 292 292 293 294 293 292 293 291 291 291 292 292 292
285 285 285 285 284 284 284 284 286 287 285 283 283 283 285 284 283 284 283 283 282 281 283 283 284 280 283 286 289 289 289 290 291 293 292 292 293 293 294 294 295 295 294 295 295 295 295 294 294 295 296 295 295 295 295 296 296 296 296 297 297 297 296 296 296 296 296 295 295 294 294 294 294 294 294 293 293 294 293 292 291 291 290 291 292 291
286 285 285 284 284 281 284 288 285 288 286 282 283 283 284 284 284 282 283 281 280 280 280 281 284 280 281 286 283 286 287 289 290 291 292 292 293 294 294 295 294 294 294 293 294 295 294 294 294 294 294 295 294 294 294 295 295 296 296 296 296 296 296 295 295 295 295 296 295 295 294 294 295 295 295 294 294 292 292 291 292 291 290 290 291 291
284 287 285 287 285 284 286 283 285 288 285 285 283 283 282 282 281 282 280 281 278 277 279 280 283 279 284 287 285 282 286 287 287 289 290 291 293 295 294 294 294 294 294 294 293 293 294 294 294 293 292 294 293 292 292 293 293 294 294 294 294 295 295 295 294 295 295 295 295 294 294 294 294 294 292 292 292 292 291 291 291 290 290 289 289 290
287 288 287 285 287 289 284 284 283 288 286 284 285 286 282 281 279 278 278 277 276 275 281 282 283 284 281 286 284 285 286 286 288 287 289 291 291 291 291 292 294 294 294 294 293 293 293 293 293 292 294 294 294 292 291 292 292 293 293 293 293 294 294 294 294 294 294 294 295 294 294 294 294 294 292 290 291 291 290 290 290 290 290 289 289 289
286 286 287 286 288 285 285 285 284 283 282 286 283 282 282 284 278 275 269 275 275 273 282 282 283 284 279 282 284 283 284 283 288 290 291 292 292 292 293 292 293 293 293 293 293 293 293 294 295 295 294 294 294 294 292 291 291 292 292 292 292 292 293 293 293 293 294 294 294 294 294 294 294 294 292 291 291 290 290 290 290 290 289 288 289 289
282 284 285 287 289 290 286 287 283 285 286 285 283 285 281 278 277 272 273 271 273 279 279 280 282 280 281 288 287 288 290 289 287 289 291 292 294 294 294 292 293 292 292 292 292 292 293 293 293 293 294 294 293 293 292 290 290 290 291 290 291 291 291 292 292 293 293 293 294 294 294 294 294 293 293 292 292 291 290 290 290 289 288 288 288 288
285 281 283 286 288 288 288 284 281 282 284 283 283 280 278 274 272 273 272 269 272 278 278 280 282 280 286 287 289 292 295 296 293 290 290 291 291 292 291 292 291 292 292 292 291 291 292 292 293 293 293 293 293 293 292 291 290 290 290 290 290 290 291 291 292 292 292 293 293 294 294 294 293 293 293 293 292 292 291 291 290 289 289 288 288 288
279 284 285 285 286 287 290 290 289 287 284 285 285 286 283 280 274 272 275 278 281 281 277 278 277 276 276 284 285 291 291 287 286 287 287 287 288 288 288 288 291 291 292 291 291 291 291 291 292 293 293 293 293 292 293 292 291 290 290 290 289 289 290 290 291 291 292 292 293 293 293 293 293 293 293 293 293 292 291 291 291 290 290 290 289 289
283 285 286 288 286 288 288 289 286 284 283 285 284 283 280 282 283 282 284 282 283 283 277 275 279 279 286 287 288 285 286 289 288 288 286 288 288 287 289 290 290 290 290 290 290 290 291 291 291 292 292 292 291 291 291 291 291 291 290 289 289 289 289 289 290 290 291 291 292 292 292 292 292 292 293 293 292 292 291 290 290 290 290 290 290 290
283 279 284 286 285 287 287 286 287 288 281 283 284 282 285 286 286 282 282 284 280 278 279 284 282 285 288 292 294 288 288 288 286 287 286 288 287 287 290 290 290 290 290 289 289 289 289 289 290 290 290 290 290 290 290 290 290 290 290 290 289 289 289 289 289 290 290 290 291 291 292 292 292 292 291 292 291 291 290 290 290 290 290 290 290 290
286 287 287 284 285 287 284 285 286 284 286 284 278 284 286 287 286 283 278 278 279 278 279 286 282 284 285 282 286 287 287 288 287 285 285 286 287 290 289 289 289 289 289 289 288 288 288 288 288 288 289 289 289 290 290 290 290 291 291 290 289 289 289 289 289 289 289 289 290 290 291 291 291 291 291 292 291 291 290 289 289 289 289 288 289 288
287 281 288 288 286 286 284 287 287 287 287 285 284 286 285 280 279 280 276 274 276 276 278 282 285 285 287 287 291 290 290 289 288 285 287 288 288 287 288 288 288 288 287 287 287 286 286 286 286 287 287 288 289 289 290 290 290 290 290 290 290 290 289 289 289 289 289 289 289 290 290 290 290 290 291 291 290 290 289 289 288 288 289 288 288 287
285 282 284 286 285 285 284 284 279 283 285 285 286 284 284 282 281 279 282 278 280 277 279 279 284 281 289 289 291 290 287 287 287 287 288 286 286 286 285 285 285 285 285 285 285 285 285 286 286 286 286 286 287 288 289 289 289 289 290 290 290 290 290 290 289 289 288 289 289 289 290 290 290 290 290 290 290 289 288 289 288 288 287 288 288 287
283 287 280 287 284 286 282 284 282 284 281 283 283 281 282 281 282 283 282 280 280 279 279 279 278 284 289 290 289 288 287 287 287 288 287 285 284 284 284 284 284 284 284 284 284 284 285 285 285 286 286 287 287 288 288 288 288 288 289 289 289 289 289 289 290 289 289 289 289 288 288 289 289 289 289 289 289 289 288 288 288 288 288 287 287 287
285 283 282 285 285 284 286 286 284 285 285 282 284 282 285 282 281 279 278 286 282 281 278 278 277 285 291 293 292 288 287 286 286 286 285 283 283 283 283 283 283 283 283 283 284 284 284 285 285 285 286 286 286 287 287 288 287 287 287 288 289 289 289 289 289 289 289 289 289 288 288 288 288 288 288 288 288 288 288 288 288 288 287 287 287 286
287 283 282 280 284 286 287 287 286 286 284 284 286 284 287 285 284 281 277 281 284 282 284 282 279 281 295 294 294 294 285 283 283 284 283 282 282 282 283 283 283 283 283 283 283 284 284 284 284 284 285 285 285 286 286 287 287 286 287 287 287 288 288 289 289 289 288 288 288 288 288 287 287 287 287 287 288 288 288 288 288 287 287 286 286 286
290 282 279 283 286 288 291 292 287 287 290 288 288 287 286 283 284 282 281 283 280 281 281 281 278 281 292 294 294 291 283 283 283 282 281 281 281 282 282 282 283 283 283 283 283 283 283 283 283 283 283 284 284 285 286 286 286 286 286 286 287 287 287 288 288 288 288 288 288 288 287 287 287 287 287 286 287 287 288 288 288 287 287 287 286 285
282 283 283 278 281 282 285 287 285 285 284 281 284 285 286 287 287 287 286 285 280 282 283 280 275 281 290 292 291 283 283 281 281 281 281 280 281 281 281 282 282 282 282 282 282 282 282 282 282 282 283 283 283 284 285 286 286 285 285 285 286 286 287 287 287 287 287 288 287 287 287 287 287 286 286 286 287 287 287 288 288 287 287 286 286 286
285 284 284 278 275 273 273 275 276 279 280 283 281 281 285 287 286 285 281 283 279 283 284 280 280 287 292 292 286 283 282 281 281 280 281 281 280 280 281 281 282 282 282 282 282 282 281 282 282 282 282 283 283 283 284 285 286 285 285 284 285 285 286 286 287 287 287 287 287 287 286 286 287 287 286 287 287 287 287 287 287 287 287 286 286 286
285 285 285 284 281 278 280 282 285 284 283 283 284 285 285 286 284 284 284 280 278 281 280 282 283 283 286 289 282 281 280 279 280 279 280 280 280 281 280 281 281 281 281 281 281 281 282 282 281 282 282 282 283 283 283 284 285 285 284 284 285 285 286 286 286 286 286 286 286 286 286 286 286 286 287 287 287 287 287 287 287 287 287 286 286 286
283 283 285 285 284 285 286 285 286 285 281 283 282 282 284 282 282 281 279 277 283 279 275 283 285 282 283 287 284 279 279 279 280 280 280 280 280 280 280 280 282 281 281 282 282 281 281 281 282 282 282 282 282 282 283 283 284 285 284 283 284 285 285 286 285 285 285 286 286 286 285 286 286 286 286 287 287 287 287 287 286 286 287 287 286 285
279 278 282 283 281 284 284 283 282 281 282 282 282 282 281 282 281 279 279 282 283 279 276 281 282 280 282 282 277 279 279 278 279 279 281 281 280 280 279 280 280 280 281 282 282 282 282 281 282 282 282 282 282 282 283 283 283 285 285 284 284 284 284 285 285 285 285 285 285 285 285 285 286 286 286 286 286 286 286 286 286 286 286 286 286 286
280 277 281 281 280 282 282 281 281 280 280 280 280 281 282 282 281 282 281 282 281 280 281 281 282 281 284 277 279 279 280 280 280 281 281 279 279 280 280 280 281 281 282 282 282 282 282 282 282 282 282 282 282 282 283 283 283 284 284 284 283 284 285 284 284 284 284 284 284 285 285 285 285 285 285 285 285 286 286 286 286 286 285 285 286 286
282 276 285 280 277 277 280 281 281 280 280 278 280 281 281 281 281 281 281 280 281 280 281 281 281 281 279 278 277 281 280 281 281 279 279 281 281 280 280 281 281 281 282 282 282 282 282 282 282 282 282 282 282 282 283 284 284 284 284 284 283 283 284 284 284 284 284 284 284 284 284 284 284 284 285 285 285 285 285 285 285 285 285 285 285 285
282 277 281 278 274 273 278 278 278 279 278 278 277 278 278 278 276 279 278 280 279 278 280 279 277 279 277 279 278 280 280 278 278 278 279 279 281 281 280 281 281 281 282 282 282 282 281 281 281 281 281 281 282 283 283 283 284 283 283 284 283 283 284 283 283 283 283 283 283 283 283 283 283 283 284 284 284 284 284 284 284 284 284 284 284 285
279 276 274 274 271 271 276 276 273 272 272 270 271 276 277 278 279 280 281 282 281 281 278 276 277 276 276 280 277 278 279 278 278 279 279 280 280 281 280 280 280 280 281 281 281 281 281 281 281 281 281 281 282 282 282 283 282 282 283 284 284 284 283 283 283 283 283 283 283 283 283 283 282 282 282 283 283 283 283 283 283 283 284 284 284 284
274 274 272 274 268 269 272 267 269 266 262 265 274 277 278 276 277 277 277 279 278 280 276 276 276 278 278 278 278 277 278 277 278 279 281 280 279 279 280 280 279 280 281 281 281 281 282 282 282 281 281 281 281 281 282 283 282 283 283 283 283 283 283 283 283 283 282 282 282 282 282 282 281 281 281 281 282 282 281 281 281 282 282 283 283 283
274 273 267 265 264 264 262 265 266 260 263 273 276 276 276 277 275 273 276 275 273 274 275 276 277 277 278 280 280 280 280 280 280 279 279 280 280 280 280 280 279 280 280 281 281 281 282 282 282 281 281 281 281 282 282 282 282 282 282 283 282 282 282 283 283 283 282 282 282 282 282 282 281 280 281 281 281 280 281 281 281 281 282 282 282 282
272 271 265 265 262 262 264 262 257 258 271 275 276 276 277 276 276 274 273 277 276 277 277 276 278 279 279 279 279 280 279 278 278 279 279 280 280 280 280 279 279 279 280 281 281 282 282 282 282 282 282 282 281 281 281 281 282 281 282 282 281 281 281 282 282 282 282 282 282 282 282 282 281 280 280 280 280 280 281 281 281 280 281 281 281 281
276 272 270 268 274 264 266 262 265 270 272 274 275 276 274 273 274 273 268 272 277 277 274 273 275 277 278 279 280 279 279 277 276 277 279 279 280 281 281 281 281 281 282 282 283 283 284 283 283 283 282 282 281 281 281 281 281 280 280 280 281 280 280 281 281 281 281 281 282 282 282 282 281 280 280 280 280 280 280 280 280 281 281 280 280 280
278 274 275 270 268 273 266 267 268 268 265 270 275 276 276 276 275 276 271 267 273 273 273 272 272 275 277 278 278 277 277 274 272 274 277 278 279 280 281 282 282 282 282 283 283 283 284 284 284 283 282 281 281 281 281 281 280 280 279 280 280 279 279 279 280 280 280 281 281 281 282 282 281 281 280 280 279 280 280 280 280 280 280 279 279 279
276 278 275 272 270 273 270 268 267 265 267 272 269 271 273 274 276 273 268 266 273 273 271 274 274 275 275 275 276 277 273 268 270 275 278 278 279 280 280 280 280 281 281 281 281 282 283 283 283 282 281 280 279 280 280 279 279 279 279 279 279 279 279 279 279 279 279 280 281 281 281 281 281 281 281 280 280 280 279 280 280 280 278 278 278 278
274 274 275 271 270 270 269 267 265 268 261 267 268 272 274 274 275 269 262 262 270 270 271 271 273 275 275 276 278 276 274 269 272 276 278 278 278 279 279 279 279 279 280 281 281 282 282 282 280 279 279 278 279 279 278 278 278 278 279 279 279 278 278 278 278 279 279 280 280 280 280 281 281 281 280 280 280 280 280 280 279 279 279 278 278 277
264 264 269 268 270 270 271 268 270 268 271 272 273 275 273 275 275 263 262 265 272 272 274 273 275 276 276 276 276 271 276 278 278 279 280 280 278 277 277 278 278 279 279 279 280 282 280 279 278 278 278 278 278 278 277 278 277 277 278 278 278 277 278 279 279 278 278 279 279 279 279 280 280 279 279 279 279 280 279 279 279 279 277 277 277 276
262 262 263 264 263 266 266 265 266 268 271 271 274 274 275 271 261 263 272 273 272 274 274 275 275 276 276 276 276 276 277 278 279 279 279 279 279 279 279 278 278 278 279 279 279 279 277 276 276 276 276 277 277 277 277 276 276 277 277 277 277 278 279 278 278 277 277 277 277 277 277 278 278 279 279 279 279 278 278 279 279 278 277 276 276 275
262 261 258 261 262 261 262 263 264 262 269 271 274 271 273 265 266 270 273 275 275 276 276 275 276 276 277 276 277 277 277 277 277 278 278 279 278 278 278 277 277 277 278 278 277 276 275 274 275 275 275 276 276 276 276 275 275 275 276 275 276 278 277 277 277 277 276 276 276 276 276 277 277 277 278 278 278 277 277 277 277 277 277 275 275 275
269 263 262 265 268 263 262 260 261 266 272 272 271 266 267 274 276 275 275 275 277 276 275 276 275 276 275 275 275 275 276 276 276 277 277 277 277 276 276 276 276 276 276 275 275 275 273 274 274 274 275 275 275 275 275 274 274 274 274 274 277 277 276 275 275 275 275 275 275 275 275 275 276 276 277 277 276 276 276 276 276 277 277 276 275 275
271 268 270 266 268 264 261 266 271 270 272 273 274 275 276 277 278 277 276 274 274 276 275 274 275 274 274 274 274 275 275 276 275 275 273 273 273 273 273 274 274 274 274 273 274 274 273 273 272 273 273 274 273 274 273 273 272 272 272 274 275 275 274 274 273 273 273 273 273 273 274 274 275 275 275 275 275 274 275 275 275 276 276 276 275 274
272 273 271 270 269 273 272 275 277 275 275 277 278 278 277 277 278 277 275 275 275 275 274 273 273 273 273 272 271 272 273 272 271 271 271 272 272 272 273 273 272 272 272 272 272 272 272 271 271 270 270 271 272 272 272 272 272 271 272 274 274 274 273 272 271 271 271 272 272 272 273 272 273 273 274 273 274 273 274 274 274 275 276 276 275 275
271 273 269 269 273 268 264 273 273 274 276 276 276 277 277 276 277 276 275 274 273 272 271 271 271 272 270 269 270 269 270 270 270 270 270 271 271 271 271 271 271 271 271 270 270 270 269 269 268 268 268 268 270 270 270 270 271 271 272 272 272 272 271 270 270 270 270 270 270 271 271 271 271 271 272 272 272 273 273 273 274 274 275 275 275 275
268 273 270 271 271 269 269 273 274 275 275 276 276 275 276 277 276 273 272 271 271 271 270 270 269 269 269 268 270 269 269 269 268 268 269 269 269 269 269 269 269 269 269 269 268 268 267 267 266 266 266 267 268 268 269 269 269 269 269 269 269 269 268 268 268 268 268 268 268 269 269 269 270 270 270 270 271 271 271 272 272 273 274 274 275 275
272 272 261 266 268 272 274 275 275 275 275 276 276 276 274 271 271 270 270 269 269 268 268 269 269 269 268 268 269 268 266 267 267 267 267 267 267 267 267 267 267 267 266 266 266 266 265 265 264 265 265 265 266 266 266 266 266 266 266 267 266 265 264 264 265 265 264 265 266 266 267 268 268 268 268 269 269 270 270 270 271 272 273 275 276 276
271 270 273 269 267 267 268 271 274 266 268 273 274 271 269 269 269 269 269 268 267 267 267 266 266 267 267 268 267 267 265 265 266 266 265 265 265 265 265 265 265 265 264 265 264 264 263 263 262 262 261 262 262 262 262 263 263 263 263 263 263 262 261 262 262 262 262 263 263 264 265 265 266 266 267 267 267 268 268 272 274 274 272 272 276 278
272 273 272 269 268 268 273 275 274 274 274 275 272 268 267 267 268 267 266 266 266 267 266 265 264 264 265 265 266 265 265 265 264 264 263 263 263 264 264 263 263 262 262 262 260 260 259 259 259 259 259 259 260 260 260 259 259 260 260 260 260 260 259 259 259 260 260 261 261 262 263 263 264 264 265 265 265 266 266 266 268 273 274 275 275 276
Wind_Speed
2 7 8 8 12 14 9 12 16 8 2 1 1 2 9 10 10 8 13 12 3 7 11 18 20 19 15 11 11 12 11 9 16 20 22 20 16 13 14 14 17 18 21 14 7 5 5 6 7 8 8 9 9 10 11 12 14 14 15 14 17 14 13 11 11 10 11 12 10 7 10 12 11 12 10 9 9 9 10 10 11 11 10 11 11 10
2 7 8 12 13 8 5 5 4 5 5 6 7 6 12 4 16 9 11 6 0 1 2 6 15 17 17 15 15 15 13 19 21 21 17 20 20 19 17 17 17 17 12 10 9 4 5 7 6 6 6 6 8 10 10 14 15 15 14 15 15 11 11 13 12 12 11 12 13 14 15 14 11 10 11 13 11 12 11 11 10 10 10 11 11 10
3 8 7 13 8 3 2 2 2 5 6 5 8 7 7 9 12 10 12 8 5 1 11 7 17 13 14 19 21 20 19 18 15 8 15 18 21 20 16 16 12 11 14 12 6 8 6 8 8 7 7 7 11 8 11 13 11 11 12 14 12 11 13 14 15 11 12 11 12 10 8 9 7 7 7 5 5 5 7 8 9 8 9 11 10 10
7 3 15 16 5 5 5 1 1 2 1 4 7 5 11 4 5 9 2 2 1 0 11 13 20 18 14 21 18 16 11 14 14 14 15 17 21 21 23 8 11 12 13 15 10 10 9 9 8 6 7 9 7 7 6 7 10 10 11 12 12 12 13 12 13 14 13 11 9 8 2 6 7 6 7 8 7 8 8 10 10 9 10 10 10 10
13 2 2 3 5 6 8 4 2 5 12 5 9 5 10 12 11 8 6 5 6 6 1 10 14 11 3 2 4 3 5 6 14 13 11 17 21 17 10 13 8 9 11 12 11 7 10 11 9 8 8 5 6 8 9 9 10 9 14 14 14 12 13 13 13 14 11 9 8 6 4 5 5 4 7 8 8 9 10 8 10 11 10 11 10 11
9 4 3 4 2 4 5 5 8 8 11 4 5 12 16 12 10 9 10 9 5 6 3 4 13 5 2 2 2 7 4 3 7 11 18 23 9 7 10 11 10 3 8 6 7 8 10 10 10 9 8 7 7 8 10 9 9 9 9 10 11 10 10 12 14 15 12 11 11 10 10 10 10 9 10 14 17 13 13 14 6 7 11 10 10 10
6 2 4 6 4 3 4 5 7 8 11 3 8 10 13 9 7 7 10 5 5 1 2 4 3 18 4 5 5 9 6 9 13 11 17 7 7 6 8 9 7 9 7 6 6 7 8 9 9 10 7 7 7 10 7 6 8 9 8 8 11 11 10 10 11 14 12 11 11 15 16 13 12 12 10 9 6 8 7 6 11 10 9 12 12 11
2 2 3 3 4 5 4 6 7 12 5 7 3 5 6 5 6 5 2 5 7 2 4 2 5 5 22 2 8 3 4 13 14 14 9 7 8 12 11 10 6 6 5 3 7 8 6 7 7 10 11 9 9 7 5 5 5 7 9 8 10 10 10 10 11 13 14 13 13 14 15 14 13 14 13 9 7 5 7 9 9 9 9 10 10 10
6 2 3 2 2 3 8 8 3 11 8 5 1 6 3 5 5 2 3 4 2 5 8 1 1 4 10 2 2 2 4 11 13 12 9 7 6 8 9 9 9 6 3 3 8 10 11 11 10 8 9 10 10 8 6 6 5 5 5 5 6 8 9 8 11 12 14 13 13 12 10 14 12 11 6 4 5 6 7 9 7 8 8 8 9 9
2 2 8 9 7 9 6 2 10 11 5 4 4 6 6 6 5 2 3 2 3 3 11 6 5 4 20 1 3 5 2 7 9 4 9 11 5 3 6 5 5 2 4 5 5 8 10 9 9 8 7 8 8 7 6 5 4 3 3 5 5 7 6 6 10 10 12 12 10 11 13 15 10 6 3 4 7 7 7 8 9 8 8 8 8 9
2 2 5 5 8 5 3 1 3 7 2 4 4 2 3 5 3 3 6 3 2 4 10 13 11 6 12 5 7 5 5 4 5 3 3 3 9 7 4 4 4 8 8 7 7 6 7 7 6 8 12 12 12 9 8 8 6 4 2 3 5 6 3 4 7 9 12 12 11 12 12 13 12 10 8 8 9 7 8 9 8 8 7 7 8 8
1 1 1 5 3 4 3 3 4 1 2 2 1 1 3 2 4 3 4 3 2 8 9 10 13 10 9 3 4 6 6 6 4 2 6 8 10 8 2 3 5 6 7 7 7 9 8 12 15 14 15 14 13 12 12 9 7 5 3 2 4 4 4 4 6 8 9 10 12 11 11 12 12 11 9 11 11 9 11 10 9 8 7 8 8 8
2 8 4 2 3 9 3 1 2 3 1 3 2 1 2 5 6 3 3 1 5 10 2 1 5 3 16 13 3 9 10 10 8 5 7 9 10 11 5 8 5 6 7 7 9 11 13 13 12 13 14 13 15 13 11 10 7 5 5 3 3 5 4 5 6 9 10 10 12 11 11 11 10 11 12 12 12 10 9 8 8 9 9 8 9 11
8 1 1 5 1 4 8 7 1 1 4 6 6 4 5 2 3 6 3 2 6 6 3 4 2 8 11 9 9 15 21 15 1 8 8 6 7 7 6 6 6 4 4 7 9 12 13 13 13 12 11 13 14 13 12 11 9 7 6 5 4 5 3 4 5 7 9 11 10 10 10 10 8 10 10 9 9 8 6 5 8 9 10 10 12 11
6 10 6 5 4 5 10 11 13 6 9 12 3 11 9 7 4 4 5 10 9 6 2 3 3 8 0 4 2 10 5 6 2 2 2 5 3 3 6 4 1 5 9 10 13 13 13 13 13 13 15 14 12 15 15 13 12 10 9 7 6 6 5 4 6 6 8 8 9 9 9 9 7 8 8 8 6 7 7 6 8 8 7 8 8 9
9 11 8 6 1 8 10 5 5 6 2 3 3 3 1 8 3 10 6 6 9 7 1 2 7 4 8 0 7 5 6 8 5 6 2 6 7 6 5 6 8 7 10 10 11 12 14 14 13 13 14 15 16 17 16 18 15 13 11 9 7 6 6 5 6 6 7 8 7 8 9 9 9 8 7 6 6 6 7 8 8 8 8 7 6 7
0 6 1 2 4 7 5 2 4 5 6 2 6 6 10 4 5 4 4 4 1 2 11 3 7 8 6 12 12 4 2 4 3 3 8 8 7 5 8 9 9 10 12 13 13 13 15 15 15 13 14 14 14 15 17 17 16 16 14 12 11 9 7 6 6 6 6 6 7 8 8 8 8 8 9 9 8 8 7 8 9 8 9 8 7 6
10 10 0 5 3 6 0 1 1 3 2 7 2 9 1 1 2 2 5 1 6 11 7 8 15 13 7 13 3 3 3 3 5 7 4 8 10 12 11 11 12 13 12 15 15 13 13 13 14 13 13 14 15 15 16 16 14 14 14 14 13 12 11 9 7 7 7 7 7 7 7 8 8 8 9 8 8 6 7 7 8 8 8 11 10 9
1 7 5 5 5 1 2 0 5 0 1 4 6 2 3 4 3 2 3 4 6 9 6 7 13 14 11 15 12 11 7 7 7 6 9 11 11 11 12 13 15 15 14 12 12 12 12 12 12 12 13 14 14 14 14 14 14 15 14 15 14 15 12 10 8 7 6 6 6 5 7 7 8 7 7 7 7 7 8 10 10 10 11 8 9 10
2 6 3 2 3 0 1 3 6 4 1 1 1 3 1 1 4 3 5 2 0 13 9 10 9 10 7 9 10 11 4 4 7 9 10 10 12 11 10 9 9 9 9 9 8 8 9 10 11 13 14 14 14 14 13 14 14 17 15 15 15 14 14 14 13 9 8 7 6 7 6 7 7 7 7 8 7 8 10 10 10 11 10 12 9 9
3 1 11 2 1 0 2 4 7 8 5 1 1 4 1 2 3 2 2 3 7 9 11 10 11 5 4 3 2 4 6 10 8 8 10 11 10 10 9 8 7 7 7 5 5 7 11 12 12 14 13 13 12 12 13 13 14 13 14 16 16 16 16 16 14 13 10 7 7 6 8 8 7 8 7 8 8 10 10 9 10 10 10 7 10 10
0 1 9 4 8 8 10 1 3 1 3 5 9 9 11 8 7 9 13 4 5 8 10 11 16 4 3 2 5 7 12 12 10 10 11 11 13 12 12 12 11 9 10 11 10 10 10 10 9 8 9 9 11 13 15 14 13 15 15 14 14 15 15 15 15 14 14 11 8 7 8 8 7 7 7 8 9 10 10 10 10 9 7 10 9 10
4 2 1 8 9 11 8 2 3 4 5 3 2 4 5 6 5 6 13 9 7 5 3 3 8 5 1 5 9 10 12 10 8 10 9 8 9 9 9 9 9 9 9 9 9 8 7 7 7 8 9 10 10 10 11 12 13 13 13 13 13 14 16 14 13 12 11 12 12 11 9 8 8 7 7 8 9 10 11 10 10 8 10 10 8 9
4 1 2 6 3 7 12 10 1 1 1 3 3 1 6 3 2 4 5 4 3 5 10 7 7 2 3 4 5 13 12 7 8 11 9 7 7 8 9 9 8 8 8 7 6 6 7 5 5 7 9 11 12 12 11 10 11 12 12 12 12 13 13 13 13 12 12 12 12 12 11 10 8 8 8 9 9 11 11 10 9 8 9 9 8 9
1 4 2 4 3 3 3 5 1 1 4 2 2 3 3 5 6 9 6 3 7 8 12 11 13 2 3 4 8 12 11 13 12 11 10 9 8 7 8 8 9 9 9 10 10 10 11 13 15 13 12 12 12 11 11 10 9 9 9 10 11 12 12 12 10 11 12 12 13 11 11 11 10 9 9 9 9 10 11 10 9 8 9 8 9 10
2 4 4 9 5 7 6 7 6 5 3 2 1 2 1 2 5 6 7 2 10 2 5 6 8 2 2 5 10 9 8 8 8 6 6 6 7 8 9 9 9 9 10 11 12 13 12 8 9 11 12 11 10 10 10 10 11 10 10 11 9 10 11 12 12 12 11 11 12 12 13 12 11 10 10 10 10 11 10 10 8 8 8 8 10 10
2 2 3 6 8 10 9 7 1 1 2 4 5 9 11 6 3 4 7 9 9 10 10 8 12 15 13 11 6 7 8 7 5 6 6 6 6 6 5 5 5 5 5 6 6 7 10 14 13 10 9 9 8 8 8 9 10 9 10 10 10 8 8 8 9 10 11 12 11 12 13 13 13 12 11 10 11 10 10 9 9 8 9 8 11 11
0 4 6 10 10 10 9 9 5 1 8 6 7 10 10 11 10 10 10 15 9 13 18 9 10 9 9 14 5 5 5 4 5 4 3 2 4 4 5 5 5 6 8 7 8 9 8 8 10 12 11 9 8 7 7 7 7 8 9 11 10 9 8 8 9 9 10 10 11 11 12 11 11 11 11 11 10 10 10 10 9 9 8 8 9 10
0 4 3 6 7 7 9 7 4 5 4 5 8 10 13 13 14 15 16 12 9 12 15 14 17 19 17 6 3 2 2 3 3 5 5 3 3 4 5 6 6 6 6 6 7 7 6 7 7 8 9 11 12 11 8 6 7 7 7 7 9 10 11 10 10 10 10 11 12 12 11 11 10 10 10 10 10 10 10 9 9 9 8 8 9 8
0 3 6 5 7 5 7 10 8 10 9 11 11 13 14 15 18 16 16 14 16 18 18 18 18 22 11 4 1 2 3 3 4 4 4 3 4 3 5 6 7 7 7 7 7 6 6 6 7 7 8 8 9 11 12 13 11 8 7 7 7 8 8 7 8 9 9 9 10 10 11 12 11 11 11 12 12 11 11 10 9 8 8 8 8 8
3 6 5 3 8 10 10 12 13 14 10 14 14 14 15 16 17 16 18 19 18 16 15 17 16 14 3 2 1 2 3 5 5 5 4 5 5 5 5 6 5 6 6 6 7 6 6 6 6 6 7 8 7 8 7 7 8 9 10 9 9 7 7 6 7 7 7 8 7 8 9 9 10 10 11 11 11 11 12 12 10 8 6 8 6 8
3 4 4 5 8 11 8 12 12 10 10 13 14 16 19 18 16 15 17 12 12 13 12 11 10 6 3 3 2 3 4 3 4 5 6 5 4 6 6 7 6 6 7 8 8 7 6 7 6 7 7 7 8 8 8 8 9 9 10 9 10 9 7 6 6 6 6 6 6 6 7 7 8 9 9 9 10 11 11 11 11 10 9 7 7 7
3 2 3 6 11 11 12 5 3 3 8 13 16 19 18 17 18 16 13 13 12 5 9 11 8 4 3 2 2 2 3 5 4 6 6 7 6 6 8 9 7 7 7 8 8 7 7 7 7 7 8 7 8 8 7 6 6 7 7 9 10 9 9 7 7 6 6 5 6 7 6 7 7 6 6 7 8 8 9 10 11 11 10 10 8 6
2 6 7 3 8 10 10 2 2 4 12 17 4 1 4 9 6 8 8 7 4 1 1 1 4 4 3 4 3 5 5 5 6 6 6 8 8 8 9 9 8 7 7 8 8 8 8 7 7 7 7 8 8 7 7 5 5 6 5 6 7 8 8 8 8 7 8 6 6 6 6 7 7 8 8 7 8 8 8 8 9 9 9 9 8 7
8 7 6 2 3 7 1 6 9 11 15 6 2 3 1 2 1 4 1 1 2 5 5 3 2 2 7 5 7 7 7 7 5 6 8 8 7 8 9 8 8 7 8 8 8 9 8 9 9 8 8 8 7 7 6 7 6 6 6 6 8 8 8 9 9 8 7 7 7 7 6 7 6 7 9 10 9 8 8 8 8 9 8 7 8 9
7 9 1 2 2 3 1 3 4 10 1 5 5 1 1 5 2 5 5 3 2 4 5 4 5 6 4 5 6 7 6 4 3 6 9 11 10 8 8 8 8 7 8 8 8 9 9 9 9 9 9 8 6 8 6 8 6 6 8 7 8 9 9 9 10 10 9 8 7 8 8 8 8 7 7 7 7 8 8 8 8 9 9 8 7 6
11 3 3 5 4 6 4 5 11 7 14 15 13 1 3 1 2 1 4 5 8 6 5 3 5 5 7 8 8 8 3 2 5 9 9 11 12 9 11 10 9 9 9 9 9 10 10 9 9 9 8 8 8 8 8 7 6 6 7 8 8 8 9 9 9 10 8 8 9 9 9 8 8 9 9 9 9 9 8 8 8 7 5 6 8 8
9 11 7 6 6 6 5 7 7 7 8 2 2 3 1 2 1 0 6 6 2 6 3 4 4 7 8 9 8 6 0 1 6 9 9 8 8 10 10 9 8 8 9 10 9 8 9 10 8 7 8 9 9 9 8 7 7 7 8 8 8 8 10 9 11 9 8 8 7 9 10 9 8 8 7 6 8 9 9 9 7 7 5 6 7 7
3 7 5 7 4 4 8 8 7 8 6 4 3 4 5 2 1 1 5 6 3 8 6 6 8 8 7 7 10 2 1 3 8 9 10 7 8 9 10 10 9 9 9 9 10 10 10 10 8 8 7 7 9 11 7 7 7 8 9 10 9 8 10 11 11 10 9 9 8 8 8 9 9 9 10 10 9 7 7 7 8 8 6 7 6 7
6 5 6 7 9 8 7 8 10 2 2 2 2 3 5 2 3 3 6 5 1 8 8 6 10 9 9 9 7 4 5 7 8 8 7 9 7 8 8 10 10 10 10 11 9 10 10 8 5 7 8 9 11 9 8 6 7 8 11 11 9 9 11 12 11 9 8 8 8 7 7 8 9 10 10 11 11 10 9 8 7 7 7 7 6 7
0 1 3 9 10 11 15 10 5 5 3 6 7 7 3 2 2 2 11 3 4 8 7 6 9 9 8 8 5 5 8 9 10 11 10 10 8 8 8 7 10 10 11 10 10 8 6 5 5 7 9 9 9 8 7 6 7 10 11 11 10 13 13 11 9 8 7 8 8 8 9 9 8 10 10 9 10 9 9 8 8 8 7 8 7 7
2 2 5 1 4 8 7 8 9 6 6 2 5 4 4 4 1 6 4 3 2 5 5 5 7 8 7 9 7 7 8 8 9 9 10 12 12 12 11 10 10 10 8 6 7 7 7 6 7 8 10 9 9 8 8 7 10 12 12 11 13 15 12 9 9 7 7 8 9 9 10 10 10 10 10 10 9 9 10 10 9 8 8 6 6 8
5 4 5 5 3 1 1 4 5 7 1 4 1 2 2 3 7 1 4 7 5 9 7 7 5 8 6 7 7 7 8 9 10 11 11 11 11 11 9 8 8 9 10 11 11 8 5 7 10 11 12 12 10 9 9 9 12 14 13 14 16 13 10 10 9 8 8 9 10 10 11 11 12 12 10 10 9 9 12 11 10 10 8 8 8 8
3 1 4 5 5 5 4 5 5 5 2 2 2 2 3 6 5 6 5 11 8 6 6 6 5 5 4 4 6 8 8 9 10 9 9 8 7 8 9 8 7 8 9 9 8 9 7 9 10 13 14 13 11 10 10 10 13 14 15 18 16 11 9 7 7 8 10 11 11 12 12 12 12 12 11 11 10 10 11 12 10 10 9 8 8 8
5 9 8 8 2 5 6 6 6 3 2 4 5 6 8 11 10 8 7 5 7 8 1 2 5 4 3 3 5 7 8 6 6 7 7 9 10 10 10 10 10 10 11 11 12 11 8 10 12 13 15 15 14 13 11 10 12 15 18 17 12 12 10 8 8 10 11 12 13 13 13 13 12 13 12 11 10 11 11 12 10 10 9 8 8 9
4 5 0 3 4 3 5 12 10 6 9 14 12 10 10 11 10 7 5 7 5 4 2 2 2 3 3 3 3 4 3 5 8 9 9 10 11 12 11 11 10 10 10 11 11 10 9 11 12 13 16 17 16 15 12 11 10 15 17 14 12 11 10 11 12 13 14 14 14 14 14 15 15 14 13 13 10 11 11 12 12 11 11 9 9 10
6 5 3 6 7 5 8 8 7 10 11 11 12 10 8 5 7 5 4 3 2 4 4 4 2 2 1 2 2 5 8 7 7 9 9 10 12 12 12 12 13 12 12 12 13 11 12 11 13 16 17 18 18 15 13 12 12 13 13 14 12 12 12 13 14 16 16 16 15 14 13 14 12 12 13 13 12 11 11 11 11 11 11 11 11 10
8 3 5 9 10 9 15 13 9 9 9 8 8 8 10 11 5 4 2 3 3 2 3 1 0 0 2 3 4 5 9 8 7 9 10 11 11 11 11 11 13 14 14 13 12 11 12 13 14 15 17 18 19 15 15 14 13 12 13 12 13 13 14 15 14 15 15 16 14 13 13 14 17 17 13 13 12 12 13 12 11 12 13 12 11 10
4 3 4 4 6 11 9 11 15 10 10 14 12 7 3 2 2 2 3 3 3 3 2 1 1 2 2 5 4 5 7 10 7 8 11 12 12 12 11 12 13 14 15 15 14 13 13 13 16 17 17 17 15 14 16 15 16 12 14 12 12 12 15 16 16 17 17 16 15 15 14 13 12 12 12 13 12 13 13 13 13 13 13 13 10 11
2 12 9 2 8 10 11 14 6 4 9 9 4 2 2 2 2 1 2 4 5 6 6 8 6 2 3 4 4 5 6 10 9 7 10 12 13 13 13 14 14 15 15 13 12 13 15 15 15 17 20 18 17 15 17 15 15 12 14 13 14 13 16 16 17 16 17 13 14 14 14 12 12 11 11 11 11 13 14 17 24 19 15 15 20 27
10 14 6 7 9 12 14 11 4 6 7 9 1 4 3 3 3 4 4 3 3 2 4 5 9 10 4 2 4 6 8 9 11 10 12 12 12 11 12 12 13 14 15 14 15 17 15 17 17 18 20 17 14 17 17 17 17 15 13 13 14 15 17 15 15 15 16 15 14 14 16 13 12 11 11 11 12 11 12 13 14 25 32 30 30 30
Wind_Direction
126 159 169 191 222 224 222 204 218 242 57 110 184 277 261 269 278 260 273 266 273 300 240 257 267 275 278 276 274 267 277 259 262 271 272 279 285 273 261 256 255 263 261 281 293 296 283 250 237 231 220 222 217 215 203 203 207 201 198 189 200 195 184 179 175 180 177 179 178 184 196 203 189 194 188 193 195 192 197 188 190 182 182 177 177 179
89 205 215 216 226 232 233 221 250 280 282 273 271 272 273 230 278 257 287 276 57 253 280 240 273 272 282 280 268 261 252 258 250 258 275 283 279 278 269 265 258 262 289 289 298 358 311 292 269 250 233 213 215 223 203 209 208 204 200 199 206 185 188 191 188 185 188 191 186 182 191 192 186 182 185 197 190 197 196 194 190 186 181 178 181 176
217 219 233 238 236 82 75 89 157 197 236 245 236 261 297 264 261 276 251 289 296 153 272 272 282 273 270 269 263 250 244 250 262 251 259 266 275 273 277 263 285 294 283 298 336 22 329 298 287 265 248 239 228 227 206 216 207 205 203 211 201 192 193 198 194 187 196 193 197 198 203 194 188 201 208 205 196 188 193 194 192 187 184 184 180 174
273 267 235 237 218 238 264 128 109 344 205 220 264 274 257 275 307 307 254 360 328 133 296 302 297 295 265 259 258 262 251 252 254 246 243 249 257 264 261 317 291 296 302 306 10 348 328 289 279 278 262 244 242 245 234 215 211 208 212 211 200 200 200 198 199 200 201 197 197 200 99 178 191 188 180 191 181 189 182 196 190 193 187 180 181 175
225 215 252 228 201 196 236 244 253 264 264 208 227 250 271 264 249 226 275 342 315 291 277 313 287 292 276 330 331 324 255 227 257 261 253 252 247 257 325 289 273 282 313 332 342 338 304 314 306 284 271 271 246 239 235 218 209 207 212 207 201 200 198 198 195 195 185 167 161 152 89 108 118 101 164 184 206 194 191 190 192 193 178 183 178 175
274 267 120 79 111 177 203 261 234 218 261 252 223 210 239 253 278 271 289 352 1 317 351 20 330 301 263 136 293 271 3 251 254 242 248 243 269 5 280 288 305 343 51 349 323 308 305 303 306 303 287 267 248 244 236 223 219 215 215 205 202 203 200 200 196 190 181 183 176 164 166 173 184 189 181 194 200 178 185 197 146 158 191 178 184 181
219 250 178 209 141 138 171 207 235 171 242 308 265 210 237 248 251 269 288 9 300 225 318 45 91 292 158 262 270 263 263 272 264 235 255 320 336 299 288 289 311 20 24 358 320 305 320 317 315 309 296 272 261 255 253 235 227 220 215 197 200 201 201 199 194 186 186 188 191 192 195 195 191 198 213 213 200 185 189 158 181 186 173 185 184 182
168 302 83 78 116 142 165 239 236 168 195 255 239 175 197 216 231 243 224 198 251 253 288 180 170 247 299 156 226 255 234 250 259 271 295 311 314 306 301 299 354 40 59 316 323 321 309 304 306 307 318 319 296 303 312 272 264 235 224 207 202 201 201 194 187 188 192 194 197 199 205 206 207 210 214 193 193 174 172 184 183 179 185 184 188 180
152 191 147 117 133 129 200 216 167 158 161 221 232 153 165 202 210 159 171 207 235 6 306 319 63 306 258 278 327 174 188 257 260 264 267 255 272 275 284 307 26 23 333 338 337 332 328 328 325 317 317 321 320 324 309 294 281 273 260 235 220 214 201 192 189 192 198 202 200 202 205 212 219 220 215 151 160 176 175 186 178 184 180 182 189 186
287 187 203 166 143 215 217 224 164 165 196 255 118 81 77 78 65 120 117 111 320 41 275 174 191 225 282 69 195 7 286 264 255 245 292 288 226 234 281 8 15 318 315 333 326 309 317 319 322 326 306 334 344 334 328 325 326 306 278 242 231 228 215 198 190 196 203 206 203 209 213 219 220 208 156 150 170 178 173 191 190 184 178 184 183 188
215 345 161 134 203 219 139 34 169 192 160 120 118 71 13 41 49 34 64 93 43 262 262 173 201 175 279 299 178 138 206 213 262 299 267 294 322 330 23 48 347 343 353 351 342 322 311 308 318 347 11 355 355 1 6 2 0 350 313 245 232 237 236 204 200 197 203 204 209 216 215 217 217 206 180 178 188 177 176 195 188 185 184 179 189 181
183 88 161 249 91 87 100 79 35 39 141 143 94 135 30 315 19 32 343 44 185 273 265 186 190 180 225 292 300 239 275 245 223 359 352 318 308 287 74 59 335 8 354 348 351 349 352 5 6 10 15 5 356 3 7 359 351 355 341 346 247 253 215 197 195 203 212 207 213 220 218 218 218 206 201 203 199 189 188 190 187 177 172 188 186 186
267 208 234 317 223 161 166 138 330 34 31 121 91 62 249 277 25 323 43 312 188 227 267 24 121 2 248 242 279 288 275 268 220 232 259 272 282 297 3 358 356 9 2 355 3 5 6 8 10 10 3 9 10 1 354 350 339 346 355 353 282 254 218 206 193 203 210 212 218 217 217 222 217 216 213 212 213 200 198 188 182 176 188 174 186 197
279 259 157 233 28 203 134 168 226 303 201 129 161 158 104 266 234 256 254 256 303 292 268 158 175 251 274 292 217 240 255 262 249 214 236 251 265 291 351 316 355 357 356 14 16 17 10 5 4 11 18 11 4 6 1 355 357 351 351 356 316 289 250 216 211 215 216 221 222 219 221 220 214 225 222 221 220 210 205 196 200 194 192 190 197 187
306 298 245 141 252 181 177 195 195 173 157 195 147 160 188 172 162 244 188 247 250 245 342 273 111 229 72 244 269 233 282 334 288 325 275 249 286 316 273 294 344 19 26 21 26 18 13 9 10 15 12 13 15 6 5 4 360 357 353 350 334 306 300 251 232 224 229 230 226 225 225 221 218 225 225 227 221 209 202 202 208 207 206 209 204 205
209 243 262 196 309 146 179 219 102 99 92 204 162 74 72 234 141 245 220 241 268 268 300 249 210 203 230 346 288 229 277 282 334 301 332 6 20 359 350 7 17 17 30 32 32 24 18 15 19 21 19 13 8 11 13 10 5 0 354 344 331 310 304 293 267 248 240 241 237 235 230 228 221 219 222 228 214 206 190 201 206 212 212 218 209 213
197 273 274 17 69 179 200 135 212 139 235 204 104 194 216 157 176 269 311 248 185 39 248 188 279 266 283 287 284 324 251 306 351 350 29 45 31 38 15 8 6 20 34 34 28 23 22 19 22 23 20 14 13 14 14 13 8 4 357 353 343 333 326 304 291 270 259 254 244 242 240 236 230 228 225 224 220 212 202 201 207 207 207 207 208 206
253 270 71 119 251 252 110 307 359 12 141 105 176 236 33 143 100 184 248 346 225 243 251 198 252 274 300 285 33 20 71 327 357 36 50 57 35 30 11 14 15 24 34 33 24 20 21 24 22 21 18 16 14 12 14 14 11 11 10 4 357 350 341 325 309 293 273 261 254 252 249 243 236 233 232 227 222 207 204 208 210 212 207 204 198 189
47 293 271 257 207 315 12 64 312 312 6 179 194 282 159 245 267 278 83 255 247 246 260 212 237 251 241 265 284 284 300 329 357 3 41 30 34 41 33 30 28 23 23 23 16 8 11 16 18 19 20 15 14 15 16 13 13 14 14 10 10 3 350 324 311 297 291 272 264 259 252 243 241 236 237 231 220 209 211 212 210 209 213 205 196 191
35 262 296 31 68 14 28 100 231 215 347 63 2 322 260 89 227 216 192 215 291 269 273 257 205 243 197 244 251 280 4 357 10 11 45 48 41 49 48 41 34 35 30 15 12 9 3 10 19 21 19 15 14 14 13 15 14 15 11 11 9 4 5 360 350 331 302 293 280 271 266 255 240 236 230 226 222 223 222 220 215 213 210 209 194 197
271 222 260 222 231 312 261 204 220 177 189 161 184 256 301 222 222 127 309 194 233 259 250 274 258 229 228 217 283 63 65 47 38 20 35 47 37 36 45 49 40 30 27 29 15 11 15 15 17 17 16 13 10 13 15 16 16 12 10 9 6 6 3 4 357 350 334 311 291 280 268 261 250 241 229 227 225 230 230 228 222 221 218 195 203 191
316 228 250 269 280 242 249 165 191 247 183 176 181 210 209 217 254 247 251 186 229 231 249 246 257 231 256 273 96 100 56 58 28 48 50 26 24 17 16 19 25 22 19 17 18 20 18 14 12 13 14 14 14 15 15 12 12 13 11 6 3 2 6 0 359 356 345 335 314 294 277 269 261 250 240 234 233 232 233 232 227 222 210 213 210 196
159 192 146 239 229 247 261 221 144 140 119 145 147 274 228 233 213 229 255 239 239 234 334 277 297 229 5 348 335 59 72 58 42 51 53 34 28 22 18 19 14 22 18 14 13 15 21 23 17 13 13 14 18 16 12 11 13 11 9 7 4 3 358 359 356 357 352 345 336 318 301 286 270 258 249 241 239 240 238 237 233 216 217 218 211 204
57 139 219 270 248 293 289 276 133 32 189 280 278 2 12 306 294 323 302 32 312 323 301 287 259 298 316 336 23 54 72 68 54 49 44 42 28 17 18 16 19 15 17 11 13 12 14 13 16 24 20 16 16 14 15 14 10 6 6 4 360 3 358 355 357 355 1 359 349 336 322 307 290 278 263 252 248 247 245 240 236 218 220 221 209 210
6 283 136 257 282 279 260 312 22 10 62 121 217 252 191 246 278 267 278 281 262 229 247 255 260 241 259 318 50 49 49 44 37 25 29 24 15 22 16 12 14 8 10 12 11 7 5 11 14 13 11 12 10 7 5 8 10 10 4 2 1 355 351 355 355 359 1 2 360 355 346 329 317 300 283 268 263 257 253 248 242 226 221 214 218 216
178 232 289 296 302 288 284 272 282 304 305 285 255 279 2 308 300 320 279 254 262 173 213 249 278 259 336 350 25 23 55 62 46 49 30 25 14 10 6 10 9 11 6 1 0 6 9 4 5 8 6 5 6 3 360 357 358 1 0 359 1 357 353 352 352 354 1 2 3 1 358 352 339 324 304 290 282 270 261 254 245 237 227 215 224 219
220 284 196 237 257 261 269 274 35 323 281 264 317 314 299 292 265 246 278 264 258 290 280 282 286 291 290 298 29 357 11 13 9 19 33 15 5 356 358 360 1 358 360 355 352 348 356 2 2 358 359 358 354 356 354 351 352 353 353 354 357 355 352 350 350 350 356 357 359 360 0 355 350 339 328 312 297 288 279 265 251 238 233 218 222 223
321 261 216 254 249 259 272 280 290 69 291 299 305 295 297 290 289 283 261 266 298 302 269 264 274 292 293 292 324 19 3 354 358 347 1 12 345 332 313 330 343 351 354 350 355 1 359 349 348 348 347 348 349 344 344 348 343 346 348 347 346 347 351 351 352 354 357 357 357 0 355 352 346 345 336 328 315 299 288 279 269 252 243 229 223 222
189 249 278 271 272 276 273 278 294 289 263 271 269 273 278 280 274 265 265 268 268 259 275 291 287 282 281 302 104 14 10 311 312 321 306 293 286 314 319 325 333 339 333 351 338 344 340 339 336 332 336 337 340 345 348 343 344 341 343 345 345 345 347 348 349 352 355 356 357 352 348 346 347 344 341 334 329 323 310 294 280 272 259 242 235 227
61 259 254 247 276 290 298 293 293 291 293 284 271 263 263 266 266 265 270 264 255 259 265 271 272 272 296 136 40 135 333 272 277 273 292 291 297 295 304 305 315 323 326 329 322 314 319 316 323 323 325 332 339 341 341 345 345 347 341 340 342 338 335 345 340 344 347 352 350 345 343 342 343 345 343 344 340 332 321 315 306 292 275 261 249 240
151 268 311 14 316 289 287 286 283 280 280 275 273 267 258 256 261 265 270 269 271 268 265 263 262 267 110 233 219 244 242 264 276 292 286 273 263 265 274 286 279 285 291 288 300 298 288 298 303 316 324 327 329 326 328 325 327 329 333 335 338 335 330 336 332 332 334 338 338 336 338 341 341 339 342 339 334 332 333 328 323 312 295 276 260 250
320 278 323 297 291 279 270 271 275 283 272 268 270 266 260 255 258 251 254 258 259 264 272 283 277 259 120 183 259 243 245 300 285 291 294 277 260 264 262 271 277 275 269 267 275 282 292 300 309 314 314 315 317 323 327 330 329 333 329 331 332 330 324 319 321 321 321 320 323 322 329 332 331 334 332 336 335 334 331 329 329 325 316 304 286 266
220 284 296 292 281 268 272 297 349 4 319 286 259 252 256 257 252 257 261 266 264 287 270 259 270 74 191 197 216 273 205 257 241 272 277 278 266 261 264 267 273 279 273 277 282 286 289 291 299 303 305 307 308 311 306 310 309 312 315 323 320 323 321 317 314 307 304 307 320 319 322 321 325 320 324 328 329 326 329 332 332 330 327 318 308 300
217 211 246 229 255 278 287 346 324 3 274 259 277 145 214 255 271 267 262 255 282 142 240 64 140 169 160 206 216 256 266 250 271 253 245 265 272 257 256 257 261 266 267 268 270 279 281 283 281 282 279 281 284 283 287 292 290 284 281 286 298 307 309 313 316 313 309 309 314 312 315 321 327 327 324 324 328 332 332 334 329 322 318 314 311 299
238 242 238 166 234 252 1 10 316 261 256 277 1 258 315 265 237 244 345 95 141 89 109 92 157 163 219 205 218 233 239 251 252 263 279 268 243 256 255 258 267 273 272 270 272 267 264 267 272 272 281 284 284 288 298 299 294 299 302 303 308 307 310 312 310 310 304 310 316 321 321 322 321 321 323 325 328 331 332 330 326 323 318 318 312 309
232 239 166 294 166 10 20 220 235 242 229 276 256 295 343 89 97 67 318 224 195 176 153 168 221 217 236 242 256 248 243 265 321 280 269 276 269 248 260 267 275 271 268 264 260 263 263 262 265 271 276 280 285 288 287 288 292 301 297 304 307 309 311 308 309 308 312 312 317 320 323 325 322 317 313 311 314 316 320 324 323 319 316 313 303 292
224 203 176 259 218 229 216 195 237 302 309 292 290 243 149 158 169 193 234 281 185 203 152 176 246 241 247 248 247 257 275 26 318 291 267 253 258 241 230 246 260 271 271 271 267 270 269 266 267 269 274 282 282 283 286 287 293 289 294 301 298 305 303 305 302 301 302 304 312 319 318 317 312 314 316 318 318 317 316 316 312 306 300 298 296 299
200 199 215 210 261 208 234 264 263 235 246 322 167 291 318 217 137 134 96 285 220 217 182 177 222 236 239 248 249 250 121 356 299 272 270 261 237 235 241 240 250 260 266 269 274 272 271 270 267 268 265 274 281 279 285 294 293 293 287 285 288 294 296 295 293 295 294 294 305 310 312 309 305 299 295 292 298 305 309 308 298 288 287 276 286 286
205 210 220 215 258 260 252 249 253 266 253 124 239 215 257 236 127 111 71 277 247 182 219 187 243 248 237 235 248 167 120 245 259 271 274 261 244 238 240 244 244 248 254 257 259 267 272 269 264 269 278 276 278 279 283 288 293 294 289 285 286 285 287 286 289 294 291 293 297 300 300 302 301 302 302 301 296 286 281 279 283 286 283 272 263 262
147 205 192 230 227 235 253 254 254 236 214 279 227 253 229 146 118 62 333 292 122 210 221 200 226 244 250 239 232 190 209 252 270 274 272 270 238 246 244 253 261 259 256 260 261 251 256 271 292 292 285 283 278 282 289 290 291 284 283 283 279 280 278 280 284 284 287 291 292 290 291 289 289 292 297 297 299 300 295 292 291 285 285 283 276 271
168 330 221 214 236 241 243 263 277 286 273 241 245 235 200 169 134 250 257 242 203 209 237 210 223 240 244 249 202 195 223 227 255 272 285 294 297 280 266 263 264 269 275 278 281 293 298 288 281 277 279 283 288 292 290 288 284 281 280 281 283 278 275 280 283 283 282 286 289 291 291 289 284 286 287 284 284 287 290 289 283 279 270 273 277 275
316 115 304 9 239 236 236 248 252 264 235 200 268 178 179 85 259 219 233 162 220 254 251 218 244 251 251 239 231 222 246 254 265 277 283 282 277 277 277 280 293 297 286 281 288 301 304 311 299 295 292 284 286 289 290 291 287 283 282 280 275 273 284 288 281 282 280 280 281 284 286 287 286 283 282 283 282 285 285 283 275 266 263 257 256 259
207 125 233 210 225 25 220 245 260 249 311 114 222 45 230 142 232 198 284 288 282 298 304 302 270 268 237 253 243 256 271 279 277 277 278 282 288 294 303 309 306 305 311 319 318 312 316 310 302 294 291 293 293 292 291 293 289 288 287 283 277 283 291 284 286 285 281 280 282 283 283 283 284 284 282 280 280 281 284 284 284 278 266 260 258 254
231 104 249 246 188 237 209 223 209 215 177 211 107 219 243 225 272 294 305 298 298 290 297 296 274 251 236 236 275 282 278 280 286 291 303 307 316 318 314 313 308 306 303 298 289 293 308 301 295 295 294 294 292 293 294 294 290 288 287 282 288 297 292 287 287 286 287 286 283 285 284 283 282 280 277 279 283 283 280 279 278 275 271 264 259 263
210 193 201 225 224 143 203 233 239 220 235 239 177 236 254 276 282 280 278 265 278 289 255 245 272 296 325 320 290 283 286 291 305 320 323 309 309 303 303 302 301 299 299 299 299 304 308 298 297 297 295 294 296 295 294 292 288 288 284 286 299 299 302 302 296 293 287 286 286 284 284 284 281 278 278 278 281 284 283 282 279 277 272 258 258 255
258 213 305 7 246 242 251 253 277 280 268 277 272 263 271 279 286 285 279 294 279 287 346 314 346 343 5 12 341 300 288 308 315 310 311 305 300 297 298 301 302 301 297 299 302 311 313 310 304 300 296 296 295 295 296 295 291 287 286 297 302 306 310 306 302 296 290 286 283 282 283 284 281 279 277 279 276 275 277 280 280 277 274 267 255 255
254 237 187 223 278 296 268 252 235 250 260 263 270 278 276 264 264 291 324 289 323 30 53 41 24 27 56 359 351 304 297 300 301 298 299 298 296 298 303 307 307 308 308 310 313 325 321 315 309 302 301 299 298 300 302 298 294 290 297 302 309 312 310 303 298 293 289 285 284 283 281 279 279 281 282 280 279 274 273 274 273 271 270 266 261 258
293 175 194 233 246 225 253 262 261 243 249 260 259 274 279 281 304 47 79 79 80 66 72 14 322 308 1 336 309 300 292 299 301 303 303 297 296 301 306 308 309 312 310 312 315 319 312 308 303 302 302 298 299 304 303 300 299 304 308 310 312 311 309 303 298 293 290 289 290 287 284 280 279 279 279 277 277 280 278 272 268 268 265 263 260 258
210 78 233 184 214 250 270 273 264 283 277 266 262 257 287 357 38 56 44 60 42 39 15 6 34 335 332 303 300 293 295 290 295 297 295 296 299 303 309 311 310 308 310 314 316 318 313 312 308 306 303 298 306 310 309 306 306 311 315 317 323 323 315 306 301 296 291 289 288 283 281 278 276 275 275 276 274 269 267 272 275 271 271 261 255 255
119 251 235 130 262 263 255 260 266 298 283 278 258 147 72 10 52 56 39 23 20 9 353 340 326 339 308 302 320 312 292 295 304 312 298 296 297 303 309 308 306 306 308 313 317 317 316 313 313 311 307 303 306 304 301 304 309 316 321 321 318 318 308 302 298 292 287 285 282 281 282 278 275 271 271 270 273 276 275 266 268 271 273 277 271 267
207 241 242 235 239 253 256 256 216 219 260 268 236 143 73 17 22 26 17 353 356 2 353 339 325 324 317 301 319 304 292 298 307 316 301 295 296 303 304 308 313 315 317 323 324 317 315 312 309 306 302 302 308 304 305 303 304 307 308 307 303 300 293 291 289 286 284 284 281 283 285 285 282 281 277 277 278 277 278 284 275 270 271 271 273 274